Tracking 21082 objects as of 5-Aug-2020
HD Live streaming from Space Station
objects crossing your sky now

DELTA 1 DEB

Track DELTA 1 DEB now!
10-day predictions


NORAD ID: 12171
Int'l Code: 1978-026L
Perigee: 863.2 km
Apogee: 915.8 km
Inclination: 99.1 °
Period: 102.6 minutes
Semi major axis: 7260 km
RCS: 0.8162 m2 (medium)
Launch date: March 5, 1978
Source: United States (US)
Launch site: AIR FORCE WESTERN TEST RANGE (AFWTR)

Note: This is SATELLITE DEBRIS
aabbcc
Your satellite tracking list
Your tracking list is empty




NASA's NSSDC Master Catalog

Two Line Element Set (TLE):
1 12171U 78026L   20217.51449812 -.00000079  00000-0 -21497-4 0  9996
2 12171  99.0630 181.6346 0036247 276.9148 190.4660 14.03302836 22133
Source of the keplerian elements: AFSPC